Location: Amsterdam
(30.7274°N, 84.4357°W)
Time: 20:49:06
(UTC+00:00)

Explorer 11/Cluster Stage 4 - Pass Details

Date: 19 February 2026
Orbit: 463 x 1176 km, 28.8° (Epoch: 9 March)

Event Time Altitude Azimuth Distance (km) Brightness Sun altitude
Rises 23:04:01 0° 264° (W) 2,472 11.5 4.4°
Reaches altitude 10° 23:06:45 10° 242° (WSW) 1,608 10.2 3.8°
Maximum altitude 23:09:04 16° 202° (SSW) 1,307 8.3 3.3°
Drops below altitude 10° 23:11:29 10° 162° (SSE) 1,689 8.3 2.8°
Sets 23:14:28 0° 140° (SE) 2,668 9.1 2.2°
